GW2634 Weather Reports


Display with metric or nautical units.
time (UTC)temp
F
wind
direction
speed
MPH
gust
MPH
rain 1hr
in
rain 24hr
in
rain mn
in
humidity
%
barometer
mb
20260505003041 61 198 5.0 10.0 0.00 0.00 0.00 70 1011.2
20260505001550 61 198 6.0 10.0 0.00 0.00 0.00 69 1011.2
20260505000049 62 174 5.0 10.0 0.00 0.00 0.00 67 1011.4
20260504234545 62 183 5.0 9.0 0.00 0.00 0.00 66 1011.4
20260504233100 62 188 7.0 11.0 0.00 0.00 0.00 64 1011.5
20260504231546 64 180 5.0 10.0 0.00 0.00 0.00 62 1011.5
20260504230052 63 171 6.0 9.0 0.00 0.00 0.00 63 1011.5
20260504224541 61 162 7.0 11.0 0.00 0.00 0.00 67 1011.7
20260504223048 62 131 7.0 11.0 0.00 0.00 0.00 67 1011.7
20260504221544 62 158 6.0 11.0 0.00 0.00 0.00 66 1011.8
20260504220044 63 176 8.0 12.0 0.00 0.00 0.00 63 1011.8
20260504214554 66 132 5.0 10.0 0.00 0.00 0.00 60 1011.9
20260504213041 67 206 6.0 10.0 0.00 0.00 0.00 56 1012.0
20260504211547 66 187 5.0 8.0 0.00 0.00 0.00 59 1012.0
20260504210104 68 163 2.0 7.0 0.00 0.00 0.00 59 1011.9
20260504204548 67 224 3.0 6.0 0.00 0.00 0.00 58 1012.0
20260504203100 66 131 3.0 6.0 0.00 0.00 0.00 60 1012.2
20260504201551 67 245 3.0 5.0 0.00 0.00 0.00 61 1012.2
20260504200042 66 231 2.0 5.0 0.00 0.00 0.00 60 1012.2
20260504194541 65 221 3.0 6.0 0.00 0.00 0.00 60 1012.2
20260504193049 64 171 4.0 6.0 0.00 0.00 0.00 63 1012.2
20260504191545 65 196 3.0 6.0 0.00 0.00 0.00 62 1012.3
20260504190106 65 178 4.0 6.0 0.00 0.00 0.00 60 1012.3
20260504184543 66 219 3.0 6.0 0.00 0.00 0.00 60 1012.3
20260504183042 67 207 2.0 4.0 0.00 0.00 0.00 59 1012.2
20260504181543 65 231 3.0 4.0 0.00 0.00 0.00 62 1012.2
20260504180047 65 162 2.0 5.0 0.00 0.00 0.00 63 1012.3
20260504174545 64 224 1.0 5.0 0.00 0.00 0.00 65 1012.3
20260504173043 62 164 2.0 5.0 0.00 0.00 0.00 66 1012.3
20260504171543 61 168 3.0 5.0 0.00 0.00 0.00 68 1012.4
20260504081547 57 0 0.0 2.0 0.00 0.00 0.00 67 1011.0
20260504044550 59 0 0.0 0.0 0.00 0.00 0.00 66 1011.0
20260504043052 60 0 0.0 0.0 0.00 0.00 0.00 65 1011.0
20260504041541 60 0 0.0 1.0 0.00 0.00 0.00 64 1010.8
20260504040043 60 0 0.0 1.0 0.00 0.00 0.00 65 1010.9
20260504034543 61 0 0.0 1.0 0.00 0.00 0.00 62 1010.9
20260504033041 63 0 0.0 1.0 0.00 0.00 0.00 60 1010.9
20260504031541 65 167 1.0 3.0 0.00 0.00 0.00 55 1010.9
20260504030048 67 139 1.0 5.0 0.00 0.00 0.00 52 1011.0
20260504024543 68 184 1.0 4.0 0.00 0.00 0.00 50 1011.2
20260504023044 69 196 1.0 4.0 0.00 0.00 0.00 48 1011.2
20260504021542 69 205 1.0 4.0 0.00 0.00 0.00 50 1011.3
20260504020047 69 165 2.0 4.0 0.00 0.00 0.00 47 1011.6
20260504014554 70 216 2.0 4.0 0.00 0.00 0.00 48 1011.6
20260504013045 69 238 1.0 5.0 0.00 0.00 0.00 50 1011.9
20260504011547 69 248 2.0 4.0 0.00 0.00 0.00 50 1011.9
20260504010041 69 188 2.0 5.0 0.00 0.00 0.00 51 1012.0
20260504004541 68 222 2.0 5.0 0.00 0.00 0.00 53 1012.2